Miscellaneous Local Product
Issued by NWS North Platte, NE

Home | Current Version | Previous Version | Text Only | Print | Product List | Glossary On
Versions: 1 2 3 4 5 6 7 8 9 10 11 12 13 14 15 16 17 18 19 20 21 22 23 24 25 26 27 28 29 30 31 32 33 34 35 36 37 38 39 40 41 42 43 44 45 46 47 48 49 50
000
AXUS43 KLBF 280710
MISLBF


WESTERN AND NORTH CENTRAL NEBRASKA HOURLY WEATHER ROUNDUP
NATIONAL WEATHER SERVICE NORTH PLATTE NE
100 AM CST WED JAN 28 2015

***STATIONS NOT REPORTING VARIABLES SUCH AS SKY/WEATHER OR
PRESSURE ARE PROVIDED BY THE NEBRASKA DEPARTMENT OF
ROADS...RAWS...AND APRS NETWORKS...AND ARE NOT UNDER
NATIONAL WEATHER SERVICE QUALITY CONTROL***

...OBSERVATIONS IN AND NEAR THE EASTERN PANHANDLE OF NEBRASKA...

CITY           SKY/WX    TMP DP  RH WIND       PRES   REMARKS
PINE RIDGE     PTCLDY    34  26  72 SW6       29.86F WCI  29
CHADRON        CLEAR     39  29  67 SW8       29.88F WCI  33
ALLIANCE       PTCLDY    37  28  70 SW13      29.93F WCI  29
SIDNEY         CLEAR     37  27  67 NW14      29.96S WCI  28
WHITECLAY        N/A     34  27  75 SE8         N/A  WCI  27
CRESCENT LAKE    N/A     45  28  51 NW7         N/A
LISCO            N/A     32  27  79 W8          N/A  WCI  25
LEWELLEN         N/A     34  30  86 W9          N/A  WCI  26
$$

...OBSERVATIONS IN NORTH CENTRAL NEBRASKA...

CITY           SKY/WX    TMP DP  RH WIND       PRES   REMARKS
VALENTINE      CLEAR     40  31  70 SW10      29.84F WCI  33
THEDFORD       CLEAR     41  31  67 W5        29.87F
AINSWORTH      CLEAR     38  29  72 S6        29.83F WCI  33
O`NEILL        PTCLDY    38  33  82 S12       29.85F WCI  30
ORD            CLEAR     31  27  85 SE3       29.87F
BROKEN BOW     CLEAR     32  27  81 CALM      29.87F
BROWNLEE         N/A     49  29  47 W6          N/A
SPRINGVIEW       N/A     28  25  88 CALM        N/A
HALSEY           N/A     41  27  56 NW3         N/A
BREWSTER         N/A     34  31  90 CALM        N/A
ROSE             N/A     39  35  85 SE6         N/A  WCI  35
NEWPORT          N/A     39  34  82 S9          N/A  WCI  32
SARGENT          N/A     34  30  85 CALM        N/A
COMSTOCK         N/A     39  32  76 CALM        N/A
CHAMBERS         N/A     38  31  74 S9          N/A  WCI  31
EWING            N/A     38  33  81 S5          N/A  WCI  34
$$

...OBSERVATIONS IN SOUTHWEST NEBRASKA AND FAR NORTHEAST COLORADO...

CITY           SKY/WX    TMP DP  RH WIND       PRES   REMARKS
WRAY           FAIR      35  30  80 W5        29.90F WCI  31
HOLYOKE        FAIR      41  30  65 N8        29.91F
IMPERIAL       PTCLDY    36  26  67 W6        29.89F WCI  31
OGALLALA       CLEAR     32  28  84 W6        29.90F WCI  26
NORTH PLATTE   CLEAR     28  24  85 NW7       29.89F WCI  21
MCCOOK         PTCLDY    40  28  62 SW5       29.87F
LEXINGTON      PTCLDY    31  26  84 CALM      29.88F
BRADY            N/A     32  27  81 CALM        N/A
GOTHENBURG       N/A     36  27  69 CALM        N/A
CALLAWAY         N/A     40  32  73 CALM        N/A
$$

...NORTH PLATTE AREA...

CITY           SKY/WX    TMP DP  RH WIND       PRES   REMARKS
AIRPORT        CLEAR     28  24  85 NW7       29.89F WCI  21
DOWNTOWN         N/A     37  28  71 CALM        N/A
$$

...SOME WEATHER OBSERVATIONS FROM AROUND THE REGION...

CITY           SKY/WX    TMP DP  RH WIND       PRES   REMARKS
DENVER         PTCLDY    43  25  49 SW8       30.01S
LARAMIE        MOCLDY    37  25  61 SW7       30.12S WCI  32
CHEYENNE       PTCLDY    48  25  40 SW20      30.03F
SCOTTSBLUFF      N/A    N/A N/A N/A MISG      29.96S
RAPID CITY     MOCLDY    44  26  49 NW8       29.78F
PIERRE         PTCLDY    34  31  88 SE7       29.75F WCI  28
WINNER         FAIR      48  32  53 SW6       29.79F
SIOUX FALLS    CLEAR     36  30  79 S10       29.93S WCI  28
OMAHA          PTCLDY    39  31  72 SE16      29.98F WCI  30
GRAND ISLAND   PTCLDY    36  29  75 S5        29.90F WCI  32
KANSAS CITY    CLEAR     40  31  70 SE15      30.02F WCI  32
WICHITA        PTCLDY    46  34  62 S6        29.97F
HAYS           CLEAR     48  30  49 SW12      29.91F
LIBERAL        CLEAR     41  30  65 SW10      29.99F
GOODLAND       PTCLDY    41  28  60 SW6       29.90F
$$



USA.gov is the U.S. government's official web portal to all federal, state and local government web resources and services.